| time (UTC) | temp C | wind direction | speed KPH | gust KPH | rain 1hr cm | rain 24hr cm | rain mn cm | humidity % | barometer mb |
| 20260509090012 | 12 | 207 | 0.0 | 3.2 | 0.00 | 0.00 | 0.00 | 81 | 1008.7 |
| 20260509084507 | 13 | 205 | 1.6 | 3.2 | 0.00 | 0.00 | 0.00 | 80 | 1008.9 |
| 20260509083038 | 13 | 294 | 1.6 | 3.2 | 0.00 | 0.00 | 0.00 | 75 | 1008.9 |
| 20260509081523 | 13 | 221 | 1.6 | 3.2 | 0.00 | 0.00 | 0.00 | 75 | 1008.9 |
| 20260509080025 | 13 | 25 | 0.0 | 1.6 | 0.00 | 0.00 | 0.00 | 74 | 1008.7 |
| 20260509074516 | 14 | 200 | 0.0 | 3.2 | 0.00 | 0.00 | 0.00 | 67 | 1008.5 |
| 20260509073013 | 14 | 173 | 0.0 | 3.2 | 0.00 | 0.00 | 0.00 | 67 | 1008.6 |
| 20260509071512 | 14 | 150 | 3.2 | 6.4 | 0.00 | 0.00 | 0.00 | 66 | 1008.6 |
| 20260509070009 | 14 | 148 | 1.6 | 4.8 | 0.00 | 0.00 | 0.00 | 68 | 1008.8 |
| 20260509064526 | 13 | 157 | 1.6 | 4.8 | 0.00 | 0.00 | 0.00 | 69 | 1008.9 |
| 20260509063022 | 13 | 148 | 0.0 | 3.2 | 0.00 | 0.00 | 0.00 | 72 | 1009.1 |
| 20260509061522 | 13 | 147 | 1.6 | 4.8 | 0.00 | 0.00 | 0.00 | 70 | 1009.2 |
| 20260509060029 | 14 | 153 | 1.6 | 4.8 | 0.00 | 0.00 | 0.00 | 63 | 1009.4 |
| 20260509054513 | 15 | 161 | 1.6 | 4.8 | 0.00 | 0.00 | 0.00 | 63 | 1009.4 |
| 20260509053011 | 15 | 188 | 0.0 | 0.0 | 0.00 | 0.00 | 0.00 | 64 | 1009.5 |
| 20260509051526 | 14 | 180 | 0.0 | 0.0 | 0.00 | 0.00 | 0.00 | 67 | 1009.5 |
| 20260509050029 | 14 | 147 | 0.0 | 0.0 | 0.00 | 0.00 | 0.00 | 66 | 1009.4 |
| 20260509044526 | 13 | 147 | 0.0 | 0.0 | 0.00 | 0.00 | 0.00 | 67 | 1009.4 |
| 20260509043022 | 13 | 164 | 0.0 | 0.0 | 0.00 | 0.00 | 0.00 | 67 | 1009.4 |
| 20260509041532 | 13 | 164 | 0.0 | 0.0 | 0.00 | 0.00 | 0.00 | 73 | 1009.5 |
| 20260509040014 | 13 | 164 | 0.0 | 0.0 | 0.00 | 0.00 | 0.00 | 73 | 1009.6 |
| 20260509034511 | 13 | 164 | 0.0 | 0.0 | 0.00 | 0.00 | 0.00 | 74 | 1009.6 |
| 20260509033029 | 14 | 164 | 0.0 | 0.0 | 0.00 | 0.00 | 0.00 | 70 | 1009.6 |
| 20260509031530 | 13 | 164 | 0.0 | 0.0 | 0.00 | 0.00 | 0.00 | 69 | 1009.8 |
| 20260509030024 | 14 | 164 | 0.0 | 0.0 | 0.00 | 0.00 | 0.00 | 71 | 1009.9 |
| 20260509024522 | 15 | 164 | 0.0 | 0.0 | 0.00 | 0.00 | 0.00 | 65 | 1010.0 |
| 20260509023018 | 15 | 158 | 0.0 | 0.0 | 0.00 | 0.00 | 0.00 | 70 | 1010.1 |
| 20260509021514 | 15 | 158 | 0.0 | 0.0 | 0.00 | 0.00 | 0.00 | 63 | 1010.2 |
| 20260509020013 | 16 | 169 | 0.0 | 3.2 | 0.00 | 0.00 | 0.00 | 60 | 1010.1 |
| 20260509014525 | 16 | 204 | 0.0 | 3.2 | 0.00 | 0.00 | 0.00 | 56 | 1010.1 |
| 20260509013026 | 16 | 197 | 1.6 | 3.2 | 0.00 | 0.00 | 0.00 | 52 | 1010.1 |
| 20260509011528 | 17 | 186 | 0.0 | 0.0 | 0.00 | 0.00 | 0.00 | 52 | 1010.0 |
| 20260509010036 | 17 | 216 | 0.0 | 0.0 | 0.00 | 0.00 | 0.00 | 50 | 1010.1 |
| 20260509004525 | 18 | 177 | 0.0 | 6.4 | 0.00 | 0.00 | 0.00 | 48 | 1010.1 |
| 20260509003013 | 18 | 220 | 3.2 | 8.0 | 0.00 | 0.00 | 0.00 | 48 | 1010.1 |
| 20260509001529 | 18 | 173 | 3.2 | 11.3 | 0.00 | 0.00 | 0.00 | 46 | 1010.2 |
| 20260509000028 | 19 | 198 | 3.2 | 9.7 | 0.00 | 0.00 | 0.00 | 46 | 1010.3 |
| 20260508234526 | 19 | 221 | 3.2 | 12.9 | 0.00 | 0.00 | 0.00 | 46 | 1010.2 |
| 20260508233026 | 20 | 219 | 6.4 | 14.5 | 0.00 | 0.00 | 0.00 | 45 | 1010.3 |
| 20260508231523 | 20 | 163 | 8.0 | 14.5 | 0.00 | 0.00 | 0.00 | 44 | 1010.3 |
| 20260508230034 | 21 | 192 | 9.7 | 20.9 | 0.00 | 0.00 | 0.00 | 43 | 1010.3 |
| 20260508224516 | 21 | 193 | 6.4 | 24.1 | 0.00 | 0.00 | 0.00 | 43 | 1010.4 |
| 20260508223036 | 21 | 171 | 9.7 | 19.3 | 0.00 | 0.00 | 0.00 | 42 | 1010.6 |
| 20260508221541 | 21 | 182 | 9.7 | 27.4 | 0.00 | 0.00 | 0.00 | 41 | 1010.5 |
| 20260508220029 | 22 | 217 | 12.9 | 24.1 | 0.00 | 0.00 | 0.00 | 39 | 1010.4 |
| 20260508214527 | 21 | 221 | 9.7 | 20.9 | 0.00 | 0.00 | 0.00 | 41 | 1010.3 |
| 20260508213025 | 22 | 223 | 12.9 | 19.3 | 0.00 | 0.00 | 0.00 | 40 | 1010.2 |
| 20260508211522 | 22 | 215 | 6.4 | 25.7 | 0.00 | 0.00 | 0.00 | 42 | 1010.4 |
| 20260508210019 | 22 | 202 | 6.4 | 24.1 | 0.00 | 0.00 | 0.00 | 41 | 1010.6 |
| 20260508204530 | 22 | 197 | 14.5 | 22.5 | 0.00 | 0.00 | 0.00 | 39 | 1011.0 |
| 20260508203028 | 22 | 185 | 6.4 | 19.3 | 0.00 | 0.00 | 0.00 | 40 | 1011.1 |
| 20260508201531 | 22 | 230 | 12.9 | 25.7 | 0.00 | 0.00 | 0.00 | 39 | 1011.5 |
| 20260508200025 | 22 | 217 | 12.9 | 30.6 | 0.00 | 0.00 | 0.00 | 38 | 1011.8 |
| 20260508194526 | 22 | 233 | 9.7 | 25.7 | 0.00 | 0.00 | 0.00 | 37 | 1012.1 |
| 20260508193024 | 22 | 219 | 9.7 | 25.7 | 0.00 | 0.00 | 0.00 | 38 | 1012.3 |
| 20260508191531 | 22 | 206 | 14.5 | 29.0 | 0.00 | 0.00 | 0.00 | 37 | 1012.7 |
| 20260508190036 | 21 | 194 | 8.0 | 30.6 | 0.00 | 0.00 | 0.00 | 38 | 1012.8 |
| 20260508184534 | 21 | 224 | 16.1 | 27.4 | 0.00 | 0.00 | 0.00 | 37 | 1013.1 |
| 20260508183029 | 21 | 224 | 12.9 | 29.0 | 0.00 | 0.00 | 0.00 | 38 | 1013.1 |
| 20260508181527 | 21 | 192 | 14.5 | 24.1 | 0.00 | 0.00 | 0.00 | 38 | 1013.0 |
| 20260508180026 | 21 | 234 | 9.7 | 20.9 | 0.00 | 0.00 | 0.00 | 41 | 1012.9 |
| 20260508174534 | 21 | 162 | 8.0 | 29.0 | 0.00 | 0.00 | 0.00 | 40 | 1013.1 |
| 20260508173022 | 21 | 232 | 14.5 | 25.7 | 0.00 | 0.00 | 0.00 | 38 | 1013.5 |
| 20260508171518 | 20 | 276 | 14.5 | 29.0 | 0.00 | 0.00 | 0.00 | 38 | 1014.0 |
| 20260508170014 | 20 | 225 | 11.3 | 29.0 | 0.00 | 0.00 | 0.00 | 40 | 1014.1 |
| 20260508164535 | 20 | 195 | 8.0 | 29.0 | 0.00 | 0.00 | 0.00 | 42 | 1014.4 |
| 20260508163028 | 20 | 247 | 14.5 | 19.3 | 0.00 | 0.00 | 0.00 | 41 | 1014.8 |
| 20260508161527 | 20 | 223 | 11.3 | 24.1 | 0.00 | 0.00 | 0.00 | 41 | 1015.1 |
| 20260508160031 | 20 | 202 | 9.7 | 16.1 | 0.00 | 0.00 | 0.00 | 45 | 1015.2 |
| 20260508154527 | 20 | 200 | 8.0 | 22.5 | 0.00 | 0.00 | 0.00 | 45 | 1015.3 |
| 20260508153018 | 19 | 234 | 9.7 | 20.9 | 0.00 | 0.00 | 0.00 | 44 | 1015.6 |
| 20260508151518 | 19 | 165 | 6.4 | 17.7 | 0.00 | 0.00 | 0.00 | 43 | 1015.6 |
| 20260508150013 | 18 | 174 | 6.4 | 19.3 | 0.00 | 0.00 | 0.00 | 46 | 1015.9 |
| 20260508144511 | 18 | 217 | 8.0 | 16.1 | 0.00 | 0.00 | 0.00 | 48 | 1016.1 |
| 20260508143007 | 17 | 224 | 9.7 | 22.5 | 0.00 | 0.00 | 0.00 | 48 | 1016.3 |
| 20260508141505 | 16 | 231 | 6.4 | 16.1 | 0.00 | 0.00 | 0.00 | 51 | 1016.4 |
| 20260508140022 | 15 | 201 | 3.2 | 11.3 | 0.00 | 0.00 | 0.00 | 57 | 1016.3 |
| 20260508134522 | 15 | 213 | 4.8 | 14.5 | 0.00 | 0.00 | 0.00 | 59 | 1016.4 |
| 20260508133025 | 13 | 225 | 4.8 | 9.7 | 0.00 | 0.00 | 0.00 | 62 | 1016.4 |
| 20260508131518 | 12 | 222 | 4.8 | 8.0 | 0.00 | 0.00 | 0.00 | 65 | 1016.4 |
| 20260508130013 | 11 | 200 | 1.6 | 6.4 | 0.00 | 0.00 | 0.00 | 70 | 1016.3 |
| 20260508124508 | 10 | 186 | 3.2 | 6.4 | 0.00 | 0.00 | 0.00 | 72 | 1016.2 |
| 20260508123008 | 8 | 152 | 1.6 | 6.4 | 0.00 | 0.00 | 0.00 | 77 | 1016.3 |
| 20260508121526 | 8 | 148 | 0.0 | 0.0 | 0.00 | 0.00 | 0.00 | 81 | 1016.3 |
| 20260508120022 | 6 | 148 | 0.0 | 0.0 | 0.00 | 0.00 | 0.00 | 87 | 1016.2 |
| 20260508114519 | 5 | 144 | 0.0 | 0.0 | 0.00 | 0.00 | 0.00 | 91 | 1016.1 |
| 20260508113018 | 4 | 145 | 0.0 | 0.0 | 0.00 | 0.00 | 0.00 | 94 | 1016.0 |
| 20260508111514 | 3 | 130 | 0.0 | 0.0 | 0.00 | 0.00 | 0.00 | 94 | 1015.8 |
| 20260508110009 | 3 | 130 | 0.0 | 0.0 | 0.00 | 0.00 | 0.00 | 93 | 1015.6 |
| 20260508104535 | 3 | 130 | 0.0 | 0.0 | 0.00 | 0.00 | 0.00 | 93 | 1015.6 |
| 20260508103034 | 3 | 134 | 0.0 | 0.0 | 0.00 | 0.00 | 0.00 | 93 | 1015.6 |
| 20260508101524 | 3 | 147 | 0.0 | 0.0 | 0.00 | 0.00 | 0.00 | 93 | 1015.5 |
| 20260508100021 | 3 | 140 | 0.0 | 0.0 | 0.00 | 0.00 | 0.00 | 94 | 1015.4 |
| 20260508094517 | 3 | 140 | 0.0 | 0.0 | 0.00 | 0.00 | 0.00 | 94 | 1015.6 |
| 20260508093013 | 3 | 140 | 0.0 | 3.2 | 0.00 | 0.00 | 0.00 | 93 | 1015.6 |
| 20260508091515 | 3 | 148 | 0.0 | 3.2 | 0.00 | 0.00 | 0.00 | 94 | 1015.6 |